Date,Day,Month,Year,Week,Secchi_Depth,Secchi_Depth_QF,Comments
2008-01-21,21,1,2008,4,6.5,1,
2008-01-28,28,1,2008,5,4.5,1,
2008-02-04,4,2,2008,6,3.5,1,
2008-02-11,11,2,2008,7,4,1,
2008-02-18,18,2,2008,8,6,1,
2008-02-25,25,2,2008,9,4.5,1,
2008-03-03,3,3,2008,10,4.5,1,
2008-03-10,10,3,2008,11,4.5,1,
2008-03-17,17,3,2008,12,9,1,
2008-03-24,24,3,2008,13,7,1,
2008-03-31,31,3,2008,14,7.5,1,
2008-04-07,7,4,2008,15,4.5,1,
2008-04-14,14,4,2008,16,10,1,
2008-04-21,21,4,2008,17,11,1,
2008-04-28,28,4,2008,18,4.5,1,
2008-05-05,5,5,2008,19,11.5,1,
2008-05-12,12,5,2008,20,10,1,
2008-05-19,19,5,2008,21,8,1,
2008-05-26,26,5,2008,22,5.5,1,
2008-06-02,2,6,2008,23,5,1,
2008-06-09,9,6,2008,24,5,1,
2008-06-16,16,6,2008,25,5,1,
2008-06-23,23,6,2008,26,5.5,1,
2008-06-30,30,6,2008,27,5.5,1,
2008-07-07,7,7,2008,28,5,1,
2008-07-14,14,7,2008,29,7.5,1,
2008-07-21,21,7,2008,30,9.5,1,
2008-07-28,28,7,2008,31,10,1,
2008-08-04,4,8,2008,32,9,1,
2008-08-11,11,8,2008,33,5.5,1,
2008-08-18,18,8,2008,34,7,1,
2008-08-25,25,8,2008,35,4.5,1,
2008-09-01,1,9,2008,36,10,1,
2008-09-08,8,9,2008,37,7.5,1,
2008-09-15,15,9,2008,38,9,1,
2008-09-22,22,9,2008,39,9,1,
2008-09-29,29,9,2008,40,8.5,1,
2008-10-06,6,10,2008,41,8,1,
2008-10-13,13,10,2008,42,9,1,
2008-10-20,20,10,2008,43,5.5,1,
2008-10-27,27,10,2008,44,5.5,1,
2008-11-03,3,11,2008,45,5.5,1,
2008-11-10,10,11,2008,46,6,1,
2008-11-17,17,11,2008,47,5.5,1,
2008-11-24,24,11,2008,48,6,1,
2008-12-01,1,12,2008,49,7.5,1,
2008-12-08,8,12,2008,50,6,1,
2008-12-15,15,12,2008,51,5,1,
2008-12-22,22,12,2008,52,6,1,
2008-12-29,29,12,2008,53,8,1,
2009-01-05,5,1,2009,2,10.5,1,
2009-01-12,12,1,2009,3,5,1,
2009-01-19,19,1,2009,4,6.5,1,
2009-01-26,26,1,2009,5,8.5,1,
2009-02-02,2,2,2009,6,7.5,1,
2009-02-09,9,2,2009,7,6,1,
2009-02-16,16,2,2009,8,6,1,
2009-02-23,23,2,2009,9,7.5,1,
2009-03-02,2,3,2009,10,7,1,
2009-03-09,9,3,2009,11,8.5,1,
2009-03-16,16,3,2009,12,6.5,1,
2009-03-23,23,3,2009,13,5,1,
2009-03-30,30,3,2009,14,4.5,1,
2009-04-06,6,4,2009,15,5.5,1,
2009-04-13,13,4,2009,16,5.5,1,
2009-04-20,20,4,2009,17,5,1,
2009-04-27,27,4,2009,18,5.5,1,
2009-05-04,4,5,2009,19,5.5,1,
2009-05-11,11,5,2009,20,6,1,
2009-05-18,18,5,2009,21,5.5,1,
2009-05-25,25,5,2009,22,5.5,1,
2009-06-01,1,6,2009,23,6,1,
2009-06-08,8,6,2009,24,5.5,1,
2009-06-15,15,6,2009,25,4.5,1,
2009-06-22,22,6,2009,26,5,1,
2009-06-29,29,6,2009,27,6,1,
2009-07-06,6,7,2009,28,6,1,
2009-07-13,13,7,2009,29,6.5,1,
2009-07-20,20,7,2009,30,7,1,
2009-07-27,27,7,2009,31,7.5,1,
2009-08-03,3,8,2009,32,9,2,"Greater than 2sd from seasonal mean, but no reason for thinking the measurement is wrong"
2009-08-10,10,8,2009,33,7,1,
2009-08-17,17,8,2009,34,7.5,1,
2009-08-24,24,8,2009,35,6.5,1,
2009-08-31,31,8,2009,36,5.5,1,
2009-09-07,7,9,2009,37,6,1,
2009-09-14,14,9,2009,38,6.5,1,
2009-09-21,21,9,2009,39,5,1,
2009-09-28,28,9,2009,40,8,1,
2009-10-05,5,10,2009,41,4.5,1,
2009-10-12,12,10,2009,42,6.5,1,
2009-10-19,19,10,2009,43,8.5,1,
2009-10-26,26,10,2009,44,9,1,
2009-11-02,2,11,2009,45,9.5,1,
2009-11-09,9,11,2009,46,9,1,
2009-11-16,16,11,2009,47,8.5,1,
2009-11-23,23,11,2009,48,7,1,
2009-11-30,30,11,2009,49,5.5,1,
2009-12-07,7,12,2009,50,12,2,"Greater than 2sd from seasonal mean, but no reason for thinking the measurement is wrong"
2009-12-14,14,12,2009,51,9,1,
2009-12-21,21,12,2009,52,8,1,
2009-12-28,28,12,2009,53,6,1,
2010-01-04,4,1,2010,2,7,1,
2010-01-11,11,1,2010,3,8,1,
2010-01-18,18,1,2010,4,7,1,
2010-01-25,25,1,2010,5,10,1,
2010-02-01,1,2,2010,6,5.5,1,
2010-02-08,8,2,2010,7,7.5,1,
2010-02-15,15,2,2010,8,6.5,1,
2010-02-22,22,2,2010,9,8.5,1,
2010-03-01,1,3,2010,10,6,1,
2010-03-08,8,3,2010,11,5.5,1,
2010-03-15,15,3,2010,12,5.5,1,
2010-03-22,22,3,2010,13,6.5,1,
2010-03-29,29,3,2010,14,6,1,
2010-04-05,5,4,2010,15,5,1,
2010-04-12,12,4,2010,16,9.5,2,"Greater than 2sd from seasonal mean, but no reason for thinking the measurement is wrong"
2010-04-19,19,4,2010,17,6,1,
2010-04-26,26,4,2010,18,5.5,1,
2010-05-03,3,5,2010,19,5,1,
2010-05-10,10,5,2010,20,6,1,
2010-05-17,17,5,2010,21,6,1,
2010-05-24,24,5,2010,22,6.5,1,
2010-05-31,31,5,2010,23,7,1,
2010-06-07,7,6,2010,24,6.5,1,
2010-06-14,14,6,2010,25,6,1,
2010-06-21,21,6,2010,26,5,1,
2010-06-28,28,6,2010,27,6,1,
2010-07-05,5,7,2010,28,6.5,1,
2010-07-12,12,7,2010,29,5.5,1,
2010-07-19,19,7,2010,30,6.5,1,
2010-07-26,26,7,2010,31,6,1,
2010-08-02,2,8,2010,32,6,1,
2010-08-09,9,8,2010,33,6.5,1,
2010-08-16,16,8,2010,34,6,1,
2010-08-23,23,8,2010,35,5.5,1,
2010-08-30,30,8,2010,36,6,1,
2010-09-06,6,9,2010,37,6.5,1,
2010-09-13,13,9,2010,38,5.5,1,
2010-09-20,20,9,2010,39,5,1,
2010-09-27,27,9,2010,40,5.5,1,
2010-10-04,4,10,2010,41,6.5,1,
2010-10-11,11,10,2010,42,7.5,1,
2010-10-18,18,10,2010,43,8.5,1,
2010-10-25,25,10,2010,44,7.5,1,
2010-11-01,1,11,2010,45,6.5,1,
2010-11-08,8,11,2010,46,6,1,
2010-11-15,15,11,2010,47,8,1,
2010-11-22,22,11,2010,48,10.5,2,"Greater than 2sd from seasonal mean, but no reason for thinking the measurement is wrong"
2010-11-29,29,11,2010,49,9,1,
2010-12-06,6,12,2010,50,7.5,1,
2010-12-13,13,12,2010,51,7,1,
2010-12-20,20,12,2010,52,6,1,
2010-12-27,27,12,2010,53,7.5,1,
2011-01-03,3,1,2011,2,7.5,1,
2011-01-10,10,1,2011,3,6.5,1,
2011-01-17,17,1,2011,4,6,1,
2011-01-24,24,1,2011,5,6,1,
2011-01-31,31,1,2011,6,5,1,
2011-02-07,7,2,2011,7,7,1,
2011-02-14,14,2,2011,8,8,1,
2011-02-21,21,2,2011,9,8.5,1,
2011-02-28,28,2,2011,10,8.5,1,
2011-03-07,7,3,2011,11,8,1,
2011-03-14,14,3,2011,12,7.5,1,
2011-03-21,21,3,2011,13,6.5,1,
2011-03-28,28,3,2011,14,5,1,
2011-04-04,4,4,2011,15,5,1,
2011-04-11,11,4,2011,16,5.5,1,
2011-04-18,18,4,2011,17,5.5,1,
2011-04-25,25,4,2011,18,5,1,
2011-05-02,2,5,2011,19,9.5,1,
2011-05-09,9,5,2011,20,9.5,1,
2011-05-16,16,5,2011,21,6.5,1,
2011-05-23,23,5,2011,22,5,1,
2011-05-30,30,5,2011,23,5.5,1,
2011-06-06,6,6,2011,24,5,1,
2011-06-13,13,6,2011,25,5.5,1,
2011-06-20,20,6,2011,26,7.5,1,
2011-06-27,27,6,2011,27,5.5,1,
2011-07-05,5,7,2011,28,7.5,1,
2011-07-13,13,7,2011,29,6,1,Secchi changed from variable shallow-deep or deep-shallow readings with first reading recorded to always shallow-deep readings with second reading recorded
2011-07-18,18,7,2011,30,4.5,1,
2011-07-25,25,7,2011,31,8.5,1,
2011-08-02,2,8,2011,32,10,1,
2011-08-08,8,8,2011,33,6,1,
2011-08-15,15,8,2011,34,9,1,
2011-08-22,22,8,2011,35,9,1,
2011-08-29,29,8,2011,36,8,1,
2011-09-05,5,9,2011,37,6,1,
2011-09-12,12,9,2011,38,8,1,
2011-09-20,20,9,2011,39,9,1,
2011-09-26,26,9,2011,40,10,1,
2011-10-03,3,10,2011,41,8,1,
2011-10-10,10,10,2011,42,5,2,"Greater than 2sd from seasonal mean, but no reason for thinking the measurement is wrong"
2011-10-17,17,10,2011,43,7.5,1,
2011-10-24,24,10,2011,44,7.5,1,
2011-10-31,31,10,2011,45,8.5,1,
2011-11-07,7,11,2011,46,10,1,
2011-11-14,14,11,2011,47,10,1,
2011-11-21,21,11,2011,48,9.5,1,
2011-11-28,28,11,2011,49,6,1,
2011-12-05,5,12,2011,50,3.5,1,
2011-12-12,12,12,2011,51,5.5,1,
2011-12-19,19,12,2011,52,5,1,
2011-12-27,27,12,2011,53,4,1,
2012-01-02,2,1,2012,1,6.5,1,
2012-01-08,8,1,2012,2,7.5,1,
2012-01-16,16,1,2012,3,9,1,
2012-01-24,24,1,2012,4,8.5,1,
2012-01-30,30,1,2012,5,9.5,1,
2012-02-06,6,2,2012,6,10.5,1,
2012-02-13,13,2,2012,7,8.5,1,
2012-02-20,20,2,2012,8,8.5,1,
2012-02-27,27,2,2012,9,7.5,1,
2012-03-05,5,3,2012,10,10,1,
2012-03-12,12,3,2012,11,9,1,
2012-03-19,19,3,2012,12,9,1,
2012-03-26,26,3,2012,13,10.5,1,
2012-04-02,2,4,2012,14,11.5,1,
2012-04-09,9,4,2012,15,7.5,1,
2012-04-16,16,4,2012,16,5.5,1,
2012-04-23,23,4,2012,17,5,1,
2012-04-30,30,4,2012,18,7.5,1,
2012-05-07,7,5,2012,19,7.5,1,
2012-05-14,14,5,2012,20,4.5,1,
2012-05-21,21,5,2012,21,7.5,1,
2012-05-28,28,5,2012,22,7.5,1,
2012-06-03,3,6,2012,23,6.5,1,
2012-06-11,11,6,2012,24,6.5,1,
2012-06-18,18,6,2012,25,7.5,1,
2012-06-25,25,6,2012,26,5.5,1,
2012-07-02,2,7,2012,27,6.5,1,
2012-07-09,9,7,2012,28,10.5,1,
2012-07-16,16,7,2012,29,8.5,1,
2012-07-23,23,7,2012,30,7.5,1,
2012-07-30,30,7,2012,31,9.5,1,
2012-08-06,6,8,2012,32,10,1,
2012-08-13,13,8,2012,33,10.5,1,
2012-08-20,20,8,2012,34,8.5,1,
2012-08-27,27,8,2012,35,6.5,1,
2012-09-03,3,9,2012,36,6.5,1,
2012-09-10,10,9,2012,37,6.5,1,
2012-09-17,17,9,2012,38,5.5,1,
2012-09-24,24,9,2012,39,6.5,1,
2012-10-01,1,10,2012,40,6.5,1,
2012-10-08,8,10,2012,41,6.5,1,
2012-10-15,15,10,2012,42,10,2,"Greater than 2sd from seasonal mean, but no reason for thinking the measurement is wrong"
2012-10-22,22,10,2012,43,6.5,1,
2012-10-29,29,10,2012,44,6.5,1,
2012-11-05,5,11,2012,45,5.5,1,
2012-11-12,12,11,2012,46,5.5,1,
2012-11-19,19,11,2012,47,8.5,1,
2012-11-26,26,11,2012,48,10.5,1,
2012-12-03,3,12,2012,49,8.5,1,
2012-12-10,10,12,2012,50,7.5,1,
2012-12-17,17,12,2012,51,10.5,1,
2012-12-24,24,12,2012,52,8.5,1,
2012-12-31,31,12,2012,53,7.5,1,
2013-01-07,7,1,2013,2,8.5,1,
2013-01-14,14,1,2013,3,10.5,1,
2013-01-21,21,1,2013,4,10.5,1,
2013-01-28,28,1,2013,5,9.5,1,
2013-02-04,4,2,2013,6,8.5,1,
2013-02-11,11,2,2013,7,8.5,1,
2013-02-18,18,2,2013,8,10.5,1,
2013-02-25,25,2,2013,9,11.5,1,
2013-03-04,4,3,2013,10,10.5,1,
2013-03-11,11,3,2013,11,11.5,1,
2013-03-18,18,3,2013,12,10.5,1,
2013-03-25,25,3,2013,13,11,1,
2013-04-01,1,4,2013,14,12.5,1,
2013-04-08,8,4,2013,15,12.5,1,
2013-04-15,15,4,2013,16,8.5,1,
2013-04-22,22,4,2013,17,9,1,
2013-04-29,29,4,2013,18,7.5,1,
2013-05-06,6,5,2013,19,6.5,1,
2013-05-13,13,5,2013,20,5.5,1,
2013-05-20,20,5,2013,21,6.5,1,
2013-05-27,27,5,2013,22,6.5,1,
2013-06-03,3,6,2013,23,7.5,1,
2013-06-10,10,6,2013,24,8.5,1,
2013-06-17,17,6,2013,25,8.5,1,
2013-06-24,24,6,2013,26,7.5,1,
2013-07-01,1,7,2013,27,7.5,1,
2013-07-08,8,7,2013,28,8.5,1,
2013-07-15,15,7,2013,29,6.5,1,
2013-07-22,22,7,2013,30,6.5,1,
2013-07-29,29,7,2013,31,6.5,1,
2013-08-05,5,8,2013,32,5.5,1,
2013-08-12,12,8,2013,33,5.5,1,
2013-08-19,19,8,2013,34,6.5,1,
2013-08-26,26,8,2013,35,5.5,1,
2013-09-02,2,9,2013,36,7.5,1,
2013-09-09,9,9,2013,37,8.5,1,
2013-09-17,17,9,2013,38,7.5,1,
2013-09-23,23,9,2013,39,9.5,1,
2013-09-30,30,9,2013,40,10.5,1,
2013-10-07,7,10,2013,41,8.5,1,
2013-10-13,13,10,2013,42,5.5,1,
2013-10-21,21,10,2013,43,7.5,1,
2013-10-28,28,10,2013,44,10.5,1,
2013-11-04,4,11,2013,45,9,1,
2013-11-11,11,11,2013,46,10.5,1,
2013-11-18,18,11,2013,47,8.5,1,
2013-11-25,25,11,2013,48,10.5,1,
2013-12-02,2,12,2013,49,11.5,1,
2013-12-09,9,12,2013,50,8.5,1,
2013-12-16,16,12,2013,51,,9,Not recorded
2013-12-23,23,12,2013,52,9.5,1,
2013-12-30,30,12,2013,53,8.5,1,
2014-01-06,6,1,2014,2,9.5,1,
2014-01-13,13,1,2014,3,10.5,1,
2014-01-20,20,1,2014,4,11.5,1,
2014-01-27,27,1,2014,5,10.5,1,
2014-02-03,3,2,2014,6,12.5,1,
2014-02-10,10,2,2014,7,10.5,1,
2014-02-17,17,2,2014,8,10.5,1,
2014-02-24,24,2,2014,9,,9,Not recorded
2014-03-03,3,3,2014,10,8.5,1,
2014-03-10,10,3,2014,11,,9,Not recorded
2014-03-17,17,3,2014,12,8.5,1,
2014-03-24,24,3,2014,13,8.5,1,
2014-03-31,31,3,2014,14,12.5,1,
2014-04-07,7,4,2014,15,11.5,1,
2014-04-14,14,4,2014,16,9.5,1,
2014-04-21,21,4,2014,17,8.5,1,
2014-04-28,28,4,2014,18,4.5,1,
2014-05-05,5,5,2014,19,4.5,1,
2014-05-12,12,5,2014,20,10.5,1,
2014-05-19,19,5,2014,21,6.5,1,
2014-05-26,26,5,2014,22,3.5,1,
2014-06-02,2,6,2014,23,5.5,1,
2014-06-09,9,6,2014,24,12.5,1,
2014-06-16,16,6,2014,25,8.5,1,
2014-06-23,23,6,2014,26,8.5,1,
2014-06-30,30,6,2014,27,7.5,1,
2014-07-07,7,7,2014,28,5.5,1,
2014-07-14,14,7,2014,29,6.5,1,
2014-07-21,21,7,2014,30,6.5,1,
2014-07-28,28,7,2014,31,10.5,2,"Greater than 2sd from seasonal mean, but no reason for thinking the measurement is wrong"
2014-08-04,4,8,2014,32,8.5,1,
2014-08-11,11,8,2014,33,7.5,1,
2014-08-18,18,8,2014,34,6.5,1,
2014-08-25,25,8,2014,35,6.5,1,
2014-09-01,1,9,2014,36,5.5,1,
2014-09-08,8,9,2014,37,6.5,1,
2014-09-15,15,9,2014,38,8.5,1,
2014-09-22,22,9,2014,39,9.5,1,
2014-09-29,29,9,2014,40,8.5,1,
2014-10-06,6,10,2014,41,10.5,1,
2014-10-13,13,10,2014,42,10.5,1,
2014-10-20,20,10,2014,43,10.5,1,
2014-10-27,27,10,2014,44,7.5,1,
2014-11-03,3,11,2014,45,11.5,1,
2014-11-10,10,11,2014,46,12.5,1,
2014-11-17,17,11,2014,47,12.5,1,
2014-11-24,24,11,2014,48,12.5,1,
2014-12-01,1,12,2014,49,11.5,1,
2014-12-08,8,12,2014,50,11.5,1,
2014-12-15,15,12,2014,51,4.5,1,
2014-12-22,22,12,2014,52,5.5,1,
2014-12-29,29,12,2014,53,6.5,1,
2015-01-05,5,1,2015,2,6.5,1,
2015-01-12,12,1,2015,3,4.5,1,
2015-01-19,19,1,2015,4,4.5,1,
2015-01-26,26,1,2015,5,6.5,1,
2015-02-02,2,2,2015,6,5.5,1,
2015-02-09,9,2,2015,7,7.5,1,
2015-02-16,16,2,2015,8,10.5,1,
2015-02-23,23,2,2015,9,9.5,1,
2015-03-02,2,3,2015,10,10.5,1,
2015-03-09,9,3,2015,11,8.5,1,
2015-03-16,16,3,2015,12,9.5,1,
2015-03-23,23,3,2015,13,9.5,1,
2015-03-30,30,3,2015,14,8.5,1,
2015-04-06,6,4,2015,15,9.5,1,
2015-04-13,13,4,2015,16,7.5,1,
2015-04-20,20,4,2015,17,7.5,1,
2015-04-27,27,4,2015,18,7.5,1,
2015-05-04,4,5,2015,19,6.5,1,
2015-05-11,11,5,2015,20,4.5,1,
2015-05-18,18,5,2015,21,4.5,1,
2015-05-25,25,5,2015,22,5.5,1,
2015-06-01,1,6,2015,23,7.5,1,
2015-06-08,8,6,2015,24,5.5,1,
2015-06-15,15,6,2015,25,8.5,1,
2015-06-22,22,6,2015,26,8.5,1,
2015-06-29,29,6,2015,27,6.5,1,
2015-07-06,6,7,2015,28,8.5,1,
2015-07-13,13,7,2015,29,6.5,1,
2015-07-20,20,7,2015,30,8.5,1,
2015-07-27,27,7,2015,31,5.5,1,
2015-08-03,3,8,2015,32,8.5,1,
2015-08-10,10,8,2015,33,8.5,1,
2015-08-17,17,8,2015,34,9.5,1,
2015-08-24,24,8,2015,35,9.5,1,
2015-08-31,31,8,2015,36,10.5,1,
2015-09-07,7,9,2015,37,10,1,
2015-09-14,14,9,2015,38,10.5,1,
2015-09-21,21,9,2015,39,11.5,1,
2015-09-28,28,9,2015,40,12.5,1,
2015-10-05,5,10,2015,41,11.5,1,
2015-10-12,12,10,2015,42,9.5,1,
2015-10-19,19,10,2015,43,8.5,1,
2015-10-26,26,10,2015,44,8.5,1,
2015-11-02,2,11,2015,45,8.5,1,
2015-11-09,9,11,2015,46,4.5,1,
2015-11-16,16,11,2015,47,5.5,1,
2015-11-23,23,11,2015,48,3.5,1,
2015-11-30,30,11,2015,49,5.5,1,
2015-12-06,6,12,2015,50,8.5,1,
2015-12-14,14,12,2015,51,10.5,1,
2015-12-21,21,12,2015,52,7.5,1,
2015-12-28,28,12,2015,53,10.5,1,
2016-01-04,4,1,2016,2,9.5,1,
2016-01-11,11,1,2016,3,7.5,1,
2016-01-18,18,1,2016,4,9.5,1,
2016-01-25,25,1,2016,5,8.5,1,
2016-02-01,1,2,2016,6,6.5,1,
2016-02-08,8,2,2016,7,8.5,1,
2016-02-15,15,2,2016,8,8.5,1,
2016-02-22,22,2,2016,9,9.5,1,
2016-02-29,29,2,2016,10,6.5,1,
2016-03-07,7,3,2016,11,,9,Not recorded
2016-03-14,14,3,2016,12,12.5,1,
2016-03-21,21,3,2016,13,12.5,1,
2016-03-28,28,3,2016,14,8.5,1,
2016-04-04,4,4,2016,15,9.5,1,
2016-04-11,11,4,2016,16,8.5,1,
2016-04-18,18,4,2016,17,6.5,1,
2016-04-25,25,4,2016,18,6.5,1,
2016-05-02,2,5,2016,19,5.5,1,
2016-05-09,9,5,2016,20,6.5,1,
2016-05-16,16,5,2016,21,5.5,1,
2016-05-23,23,5,2016,22,5.5,1,
2016-05-30,30,5,2016,23,8.5,1,
2016-06-06,6,6,2016,24,8.5,1,
2016-06-13,13,6,2016,25,9.5,1,
2016-06-20,20,6,2016,26,10.5,1,
2016-06-27,27,6,2016,27,5.5,1,
2016-07-04,4,7,2016,28,6.5,1,
2016-07-11,11,7,2016,29,4.5,1,
2016-07-18,18,7,2016,30,3.5,1,
2016-07-25,25,7,2016,31,6.5,1,
2016-08-01,1,8,2016,32,4.5,1,
2016-08-08,8,8,2016,33,5.5,1,
2016-08-15,15,8,2016,34,5.5,1,
2016-08-22,22,8,2016,35,6.5,1,
2016-08-29,29,8,2016,36,8.5,1,
2016-09-08,8,9,2016,37,8.5,1,
2016-09-12,12,9,2016,38,6.5,1,
2016-09-19,19,9,2016,39,8.5,1,
2016-09-26,26,9,2016,40,6.5,1,
2016-10-03,3,10,2016,41,7.5,1,
2016-10-10,10,10,2016,42,6.5,1,
2016-10-17,17,10,2016,43,7.5,1,
2016-10-24,24,10,2016,44,8.5,1,
2016-10-31,31,10,2016,45,7.5,1,
2016-11-07,7,11,2016,46,7.5,1,
2016-11-14,14,11,2016,47,8.5,1,
2016-11-21,21,11,2016,48,10,1,
2016-11-28,28,11,2016,49,11.5,1,
2016-12-05,5,12,2016,50,12,1,
2016-12-12,12,12,2016,51,,9,Not recorded
2016-12-19,19,12,2016,52,8.5,1,
2016-12-27,27,12,2016,53,4.5,1,
